Weather History for KFCM - October, 2012

Change the Weather History Date:

Thursday, October 11, 2012

  Actual Average Record
Temperature  
Mean Temperature 46 °F -  
Max Temperature 55 °F 59 °F - (-1)
Min Temperature 36 °F 39 °F - (-1)
Degree Days  
Heating Degree Days 19    
Moisture  
Dew Point 26 °F    
Average Humidity 47    
Maximum Humidity 73    
Minimum Humidity 27    
Precipitation  
Precipitation 0.00 in - - ()
Sea Level Pressure  
Sea Level Pressure 30.10 in    
Wind  
Wind Speed 11 mph (NW)    
Max Wind Speed 17 mph    
Max Gust Speed 26 mph    
Visibility 10 miles    
Events      
Averages and records for this station are not official NWS values.
T = Trace of Precipitation, MM = Missing Value Source: NWS Daily Summary

Daily Weather History Graph

Daily Weather History Graph

Search for Another Location

Airport or City:

Trip Planner

Search our weather history database for the weather conditions in past years. The results will help you decide how hot, cold, wet, or windy it might be!

Date:

Astronomy

Oct. 11, 2012 Rise Set
Actual Time 7:24 AM CDT 6:35 PM CDT
Civil Twilight 6:55 AM CDT 7:04 PM CDT
Nautical Twilight 6:21 AM CDT 7:38 PM CDT
Astronomical Twilight 5:47 AM CDT 8:12 PM CDT
Moon 2:54 AM CDT (10/11) 4:20 PM CDT (10/11)
Length of Visible Light 12h 09m
Length of Day
11h 10m
Waning Crescent, 18% of the Moon is Illuminated
Oct 11
Waning Crescent
Oct 15
New
Oct 21
First Quarter
Oct 29
Full
Nov 6
Last Quarter

Hourly Weather History & Observations

Time (CDT) Temp. Windchill Dew Point Humidity Pressure Visibility Wind Dir Wind Speed Gust Speed Precip Events Conditions
12:53 AM 53.1 °F - 27.0 °F 37% 29.81 in 10.0 mi SSW 13.8 mph 23.0 mph N/A   Overcast
1:53 AM 54.0 °F - 28.0 °F 37% 29.80 in 10.0 mi SW 16.1 mph 26.5 mph N/A   Overcast
2:08 AM 55.4 °F - 28.4 °F 36% 29.83 in 10.0 mi WSW 9.2 mph 19.6 mph N/A   Overcast
2:53 AM 53.1 °F - 30.0 °F 41% 29.82 in 10.0 mi SW 12.7 mph 19.6 mph N/A   Overcast
3:53 AM 53.1 °F - 30.0 °F 41% 29.84 in 10.0 mi WSW 5.8 mph - N/A   Overcast
4:53 AM 53.1 °F - 32.0 °F 45% 29.87 in 10.0 mi NW 8.1 mph - N/A   Overcast
5:53 AM 45.0 °F 39.3 °F 28.9 °F 53% 29.93 in 10.0 mi NNW 11.5 mph - N/A   Partly Cloudy
6:53 AM 41.0 °F 35.2 °F 33.1 °F 73% 30.00 in 10.0 mi North 9.2 mph - N/A   Partly Cloudy
7:53 AM 42.1 °F 35.7 °F 34.0 °F 73% 30.05 in 10.0 mi North 11.5 mph - N/A   Overcast
8:53 AM 42.1 °F 35.7 °F 33.1 °F 70% 30.09 in 10.0 mi North 11.5 mph - N/A   Overcast
10:53 AM 46.0 °F 40.2 °F 32.0 °F 58% 30.14 in 10.0 mi North 12.7 mph 20.7 mph N/A   Partly Cloudy
11:53 AM 46.9 °F - 30.9 °F 54% 30.17 in 10.0 mi NNW 12.7 mph - N/A   Partly Cloudy
12:53 PM 48.0 °F - 26.1 °F 42% 30.19 in 10.0 mi NW 17.3 mph 24.2 mph N/A   Clear
1:53 PM 48.9 °F - 19.9 °F 32% 30.18 in 10.0 mi NNW 12.7 mph 25.3 mph N/A   Clear
2:53 PM 50.0 °F - 18.0 °F 28% 30.20 in 10.0 mi North 8.1 mph 21.9 mph N/A   Clear
3:53 PM 48.0 °F - 17.1 °F 29% 30.22 in 10.0 mi NNW 8.1 mph - N/A   Clear
5:53 PM 46.9 °F - 14.0 °F 27% 30.25 in 10.0 mi North 13.8 mph - N/A   Clear
6:53 PM 43.0 °F 38.2 °F 18.0 °F 37% 30.29 in 10.0 mi North 8.1 mph - N/A   Clear
8:53 PM 39.9 °F 37.8 °F 21.0 °F 47% 30.34 in 10.0 mi NW 3.5 mph - N/A   Clear
9:53 PM 37.9 °F 34.4 °F 21.9 °F 53% 30.36 in 10.0 mi NNW 4.6 mph - N/A   Clear
10:53 PM 37.0 °F 32.4 °F 23.0 °F 57% 30.38 in 10.0 mi NNW 5.8 mph - N/A   Clear
11:53 PM 36.0 °F 30.3 °F 21.9 °F 57% 30.41 in 10.0 mi NNW 6.9 mph - N/A   Clear